Regional Weather Roundup
Issued by NWS Charleston, WV

Home | Current Version | Previous Version | Text Only | Print | Product List | Glossary Off
Versions: 1 2 3 4 5 6 7 8 9 10 11 12 13 14 15 16 17 18 19 20 21 22 23 24 25 26 27 28 29 30 31 32 33 34 35 36 37 38 39 40 41 42 43 44 45 46 47 48 49 50

000
ASUS41 KRLX 270410
RWRRLX
West Virginia Regional Weather Roundup
National Weather Service Charleston WV
1200 AM EDT FRI MAR 27 2015

Note: "fair" indicates few or no clouds below 12,000 feet with no
significant weather and/or obstructions to visibility.

WVZ003-270500-
Northern Panhandle of West Virginia

CITY           SKY/WX    TMP DP  RH WIND       PRES   REMARKS
WHEELING       CLOUDY    37  33  85 NW5       29.87S
$$

WVZ009-270500-
Northwest West Virginia

CITY           SKY/WX    TMP DP  RH WIND       PRES   REMARKS
PARKERSBURG    LGT RAIN  40  36  86 NW6       29.94S
$$

WVZ006-270500-
Western West Virginia

CITY           SKY/WX    TMP DP  RH WIND       PRES   REMARKS
HUNTINGTON     CLOUDY    41  37  86 N8        29.92F
$$

WVZ015-270500-
West Central West Virginia

CITY           SKY/WX    TMP DP  RH WIND       PRES   REMARKS
CHARLESTON     LGT RAIN  43  38  82 NW7       29.90F
$$

WVZ022-031-270500-
North Central West Virginia

CITY           SKY/WX    TMP DP  RH WIND       PRES   REMARKS
CLARKSBURG     LGT RAIN  42  40  92 W5        29.86R
MORGANTOWN     CLOUDY    43  38  82 VRB6      29.86F
$$

WVZ025-035-042-045-270500-
Southern West Virginia

CITY           SKY/WX    TMP DP  RH WIND       PRES   REMARKS
BECKLEY        CLOUDY    38  35  89 N7        29.85S
LOGAN          LGT RAIN  41  39  93 NW6       29.86S
BLUEFIELD      LGT RAIN  43  39  86 N6        29.84S
LEWISBURG      LGT RAIN  44  40  86 NW7       29.81S
$$

WVZ047-270500-
Northern Mountains of West Virginia

CITY           SKY/WX    TMP DP  RH WIND       PRES   REMARKS
ELKINS         CLOUDY    40  37  89 CALM      29.84S
$$

WVZ052-270500-
Eastern Panhandle of West Virginia

CITY           SKY/WX    TMP DP  RH WIND       PRES   REMARKS
MARTINSBURG    LGT RAIN  49  37  63 NW10      29.80R
PETERSBURG     CLOUDY    48  35  59 N5        29.81F
$$



USA.gov is the U.S. government's official web portal to all federal, state and local government web resources and services.